This demonstration page uses our WeatherBlox Daily Observations layout. Learn more.

Left ArrowRight Arrow

41.55636, -103.73856

Hourly Observations for June 10, 2015

Temp ( °F °C ) Dew Point ( °F °C ) Humidity (%) Winds ( mph kmh ) Pressure ( in mb ) Visibility ( mi km ) Precip ( " mm )
12:53 am 00:53 Clear 65 18.3 53 11.7 66 66 NNE 5 7 29.75 1008 10 16.0934 0 0
1:53 am 01:53 Mostly Clear 65 18.3 54 12.2 68 68 NNW 5 7 29.75 1007 10 16.0934 0 0
2:53 am 02:53 Clear 62 16.7 54 12.2 75 75 Calm 29.74 1007 10 16.0934 0 0
3:53 am 03:53 Clear 63 17.2 54 12.2 73 73 Calm 29.73 1007 10 16.0934 0 0
4:53 am 04:53 Clear 59 15 54 12.2 83 83 NNW 8 13 29.74 1007 10 16.0934 0 0
5:53 am 05:53 Mostly Cloudy 60 15.6 55 12.8 84 84 WNW 8 13 29.76 1008 10 16.0934 0 0
6:53 am 06:53 Sunny 65 18.3 57 13.9 76 76 NNW 5 7 29.74 1007 10 16.0934 0 0
7:53 am 07:53 Sunny 67 19.4 57 13.9 71 71 Calm 29.74 1007 10 16.0934 0 0
8:53 am 08:53 Mostly Sunny 71 21.7 61 16.1 71 71 Calm 29.74 1007 10 16.0934 0 0
9:53 am 09:53 Cloudy 71 21.7 61 16.1 71 71 SSE 6 9 29.76 1008 10 16.0934 0 0
10:53 am 10:53 Partly Cloudy 73 22.8 62 16.7 69 69 ESE 9 15 29.75 1008 10 16.0934 0 0
11:53 am 11:53 Mostly Sunny 76 24.4 58 14.4 54 54 SSE 14 22 29.74 1007 10 16.0934 0 0.0254
12:11 pm 12:11 Mostly Cloudy 77 25 57 13.9 50 50 S 15 24 29.65 1004 10 16.0934 0 0
12:53 pm 12:53 Partly Cloudy 75 23.9 57 13.9 54 54 S 15 24 29.73 1007 10 16.0934 0 0
1:53 pm 13:53 Mostly Sunny 75 23.9 56 13.3 52 52 SSW 13 20 29.72 1006 10 16.0934 0 0
2:53 pm 14:53 Cloudy 73 22.8 56 13.3 55 55 S 14 22 29.71 1006 10 16.0934 0 0
3:53 pm 15:53 Cloudy with Light Rain 70 21.1 59 15 68 68 SW 12 19 29.7 1006 10 16.0934 0 0.0254
4:53 pm 16:53 Cloudy 73 22.8 59 15 62 62 S 6 9 29.66 1005 10 16.0934 0.01 0.254
5:53 pm 17:53 Cloudy 74 23.3 57 13.9 56 56 ESE 10 17 29.63 1003 10 16.0934 0 0
6:53 pm 18:53 Mostly Cloudy 72 22.2 59 15 64 64 ESE 12 19 29.64 1004 10 16.0934 0 0
7:53 pm 19:53 Cloudy 70 21.1 59 15 68 68 E 10 17 29.66 1004 10 16.0934 0 0
8:53 pm 20:53 Cloudy with Light Rain 68 20 60 15.6 76 76 ESE 14 22 29.66 1004 10 16.0934 0 0.0254
9:53 pm 21:53 Cloudy with Light Rain 67 19.4 60 15.6 79 79 ESE 6 9 29.71 1006 10 16.0934 0 0.0254
10:53 pm 22:53 Cloudy with Light Rain 64 17.8 61 16.1 90 90 ESE 13 20 29.7 1006 10 16.0934 0.04 1.016
11:53 pm 23:53 Cloudy with Nearby Thunderstorms 63 17.2 60 15.6 90 90 E 7 11 29.7 1006 10 16.0934 0 0.0254

Powered by AerisWeather